EHI
0 0 0 0 0 0 0 0 0 0 0 0 0 0 0 0 0 0 1 2 2 1 0 0 0 0 0 0 0 0 0 0 0 0 0 0 0 0 0 0 0 0 0 0
0 0 0 0 0 0 0 0 0 0 0 0 0 0 0 0 0 0 1 2 2 1 0 0 0 0 0 0 0 0 0 0 0 0 0 0 0 0 0 0 0 0 0 0
0 0 0 0 0 0 0 0 0 0 0 0 0 0 0 0 0 0 0 2 2 1 0 0 0 0 0 0 0 0 0 0 0 0 0 0 0 0 0 0 0 0 0 0
0 0 0 0 0 0 0 0 0 0 0 0 0 0 0 0 0 0 1 2 2 1 0 0 0 0 0 0 0 0 0 0 0 0 0 0 0 0 0 0 0 0 0 0
0 0 0 0 0 0 0 0 0 0 0 0 0 0 0 0 0 0 1 2 2 1 0 0 0 0 0 0 0 0 0 0 0 0 0 0 0 0 0 0 0 0 0 0
0 0 0 0 0 0 0 0 0 0 0 0 0 0 0 0 0 0 0 1 1 1 0 0 0 0 0 0 0 0 0 0 0 0 0 0 0 0 0 0 0 0 0 0
0 0 0 0 0 0 0 0 0 0 0 0 0 0 0 0 0 0 0 0 0 0 0 0 0 0 0 0 0 0 0 0 0 0 0 0 0 0 0 0 0 0 0 0
0 0 0 0 0 0 0 0 0 0 0 0 0 0 0 0 0 0 0 0 0 0 0 0 0 0 0 0 0 0 0 0 0 0 0 0 0 0 0 0 0 0 0 0
0 0 0 0 0 0 0 0 0 0 0 0 0 0 0 0 0 0 0 0 0 0 0 0 0 0 0 0 0 0 0 0 0 0 0 0 0 0 0 0 0 0 0 0
0 0 0 0 0 0 0 0 0 0 0 0 0 0 0 0 0 0 0 0 0 0 0 0 0 0 0 0 0 0 0 0 0 0 0 0 0 0 0 0 0 0 0 0
0 0 0 0 0 0 0 0 0 0 0 0 0 0 0 0 0 0 0 0 0 0 0 0 0 0 0 0 0 0 0 0 0 0 0 0 0 0 0 0 0 0 0 0
0 0 0 0 0 0 0 0 0 0 0 0 0 0 0 0 0 0 0 0 0 0 0 0 0 0 0 0 0 0 0 0 0 0 0 0 0 0 0 0 0 0 0 0
0 0 0 0 0 0 0 0 0 0 0 0 0 0 0 0 0 0 0 0 0 0 0 0 0 0 0 0 0 0 0 0 0 0 0 0 0 0 0 0 0 0 0 0
0 0 0 0 0 0 0 0 0 0 0 0 0 0 0 0 0 0 0 0 0 0 0 0 0 0 0 0 0 0 0 0 0 0 0 0 0 0 0 0 0 0 0 0
0 0 0 0 0 0 0 0 0 0 0 0 0 0 0 0 0 0 0 0 0 0 0 0 0 0 0 0 0 0 0 0 0 0 0 0 0 0 0 0 0 0 0 0
0 0 0 0 0 0 0 0 0 0 0 0 0 0 0 0 0 0 0 0 0 0 0 0 0 0 0 0 0 0 0 0 0 0 0 0 0 0 0 0 0 0 0 0
0 0 0 0 0 0 0 0 0 0 0 0 0 0 0 0 0 0 0 0 0 0 0 0 0 0 0 0 0 0 0 0 0 0 0 0 0 0 0 0 0 0 0 0
0 0 0 0 0 0 0 0 0 0 0 0 0 0 0 0 0 0 0 0 0 0 0 0 0 0 0 0 0 0 0 0 0 0 0 0 0 0 0 0 0 0 0 0
0 0 0 0 0 0 0 0 0 0 0 0 0 0 0 0 0 0 0 0 0 0 0 0 0 0 0 0 0 0 0 0 0 0 0 0 0 0 0 0 0 0 0 0
0 0 0 0 0 0 0 0 0 0 0 0 0 0 0 0 0 0 0 0 0 0 0 0 0 0 0 0 0 0 0 0 0 0 0 0 0 0 0 0 0 0 0 0
0 0 0 0 0 0 0 0 0 0 0 0 0 0 0 0 0 0 0 0 0 0 0 0 0 0 0 0 0 0 0 0 0 0 0 0 0 0 0 0 0 0 0 0
0 0 0 0 0 0 0 0 0 0 0 0 0 0 0 0 0 0 0 0 0 0 0 0 0 0 0 0 0 0 0 0 0 0 0 0 0 0 0 0 0 0 0 0
0 0 0 0 0 0 0 0 0 0 0 0 0 0 0 0 0 0 0 0 0 0 0 0 0 0 0 0 0 0 0 0 0 0 0 0 0 0 0 0 0 0 0 0
0 0 0 0 0 0 0 0 0 0 0 0 0 0 0 0 0 0 0 0 0 0 0 0 0 0 0 0 0 0 0 0 0 0 0 0 0 0 0 0 0 0 0 0
0 0 0 0 0 0 0 0 0 0 0 0 0 0 0 0 0 0 0 0 0 0 0 0 0 0 0 0 0 0 0 0 0 0 0 0 0 0 0 0 0 0 0 0
0 0 0 0 0 0 0 0 0 0 0 0 0 0 0 0 0 0 0 0 0 0 0 0 0 0 0 0 0 0 0 0 0 0 0 0 0 0 0 0 0 0 0 0
Wind_Speed
2 3 2 5 5 5 4 3 4 3 2 4 4 3 2 2 4 4 5 5 6 5 4 4 6 7 6 5 6 6 6 4 4 3 3 2 1 1 1 1 1 2 2 3
3 2 6 3 2 3 3 3 2 1 2 4 4 1 0 0 3 5 6 7 7 5 3 3 5 6 6 6 6 6 6 5 4 3 2 2 2 1 0 1 1 1 1 2
5 4 5 5 4 5 4 5 5 4 3 3 5 3 2 1 2 4 4 5 6 8 7 5 5 5 6 6 6 6 5 5 4 4 3 3 3 3 2 2 1 2 1 1
3 5 3 5 6 6 5 5 6 6 5 1 3 3 2 1 3 2 3 5 5 5 5 5 5 4 5 5 4 5 5 5 4 4 4 4 2 1 1 1 1 2 2 1
4 3 3 6 7 6 4 5 6 5 4 3 2 5 3 1 3 2 4 5 5 5 6 6 5 5 4 4 4 4 5 4 4 4 5 4 2 1 1 0 1 1 2 2
3 2 2 4 4 6 6 7 6 5 3 1 3 4 4 5 7 5 4 5 6 5 5 5 4 4 4 4 4 4 5 3 3 4 3 3 3 1 0 0 1 1 1 2
1 2 1 3 5 3 7 7 4 2 1 3 2 3 6 6 7 8 9 7 6 5 6 6 5 5 4 4 4 4 5 3 2 3 2 3 3 2 2 1 1 1 1 1
2 2 3 2 5 6 4 7 7 5 4 2 0 3 5 3 5 6 7 7 6 6 5 6 5 5 5 5 4 4 4 3 2 2 2 1 2 1 1 2 1 1 1 2
5 4 3 3 4 8 6 3 5 6 3 2 1 1 3 3 6 6 7 7 6 6 6 5 5 5 4 4 3 4 4 3 2 2 1 1 1 1 1 1 1 1 1 1
5 3 2 2 3 2 7 8 5 5 5 2 2 4 6 10 10 8 8 8 6 6 6 5 5 4 3 3 3 4 4 3 2 2 1 1 0 0 1 0 0 1 2 1
4 4 1 2 4 6 4 4 5 4 4 6 4 7 8 14 13 13 10 9 8 7 7 5 4 4 4 4 4 4 3 3 3 2 2 2 2 1 2 1 1 1 1 1
5 5 3 4 4 6 6 6 7 6 4 4 4 7 4 12 11 12 10 8 7 7 6 5 5 4 4 4 3 3 3 3 2 2 3 2 2 3 3 2 3 2 2 2
7 5 4 2 3 1 3 5 6 5 4 5 5 5 1 7 9 10 11 9 8 7 6 5 4 4 4 3 3 3 3 3 2 3 3 3 3 3 3 2 3 3 2 2
6 4 6 8 8 6 5 6 7 6 4 5 7 6 4 9 11 10 10 10 9 8 7 6 5 4 3 3 3 3 2 3 3 4 4 3 2 2 2 2 3 3 3 3
5 3 4 6 6 5 7 8 9 7 8 8 8 11 14 17 16 14 12 11 10 8 8 7 6 4 4 3 3 3 3 3 4 4 4 2 2 3 3 3 3 3 4 4
4 3 2 2 4 5 5 8 9 8 6 5 6 7 7 8 8 10 11 13 12 10 9 8 7 6 5 5 4 4 3 3 4 5 3 3 3 4 4 4 4 4 4 4
4 5 3 3 3 1 5 9 9 7 7 9 10 10 9 9 14 17 16 14 13 12 10 9 8 7 6 5 5 5 4 4 5 5 3 3 3 3 3 4 4 4 4 4
7 5 3 2 2 4 9 5 7 8 7 8 8 9 17 18 17 13 11 14 13 12 11 9 8 6 5 5 5 5 5 5 5 4 3 3 3 3 3 3 4 3 3 3
6 7 4 3 3 5 7 4 7 8 6 6 10 11 13 8 7 2 7 11 13 12 10 8 7 7 6 6 6 6 5 5 4 3 2 1 2 2 2 3 3 2 3 3
4 6 6 4 3 6 9 6 4 7 4 4 9 12 12 13 8 9 9 10 10 10 8 8 7 6 7 6 7 7 6 5 4 3 2 1 1 2 1 1 2 2 2 2
3 3 5 5 4 8 8 3 5 6 9 5 9 13 15 13 10 8 12 10 10 10 9 9 8 7 6 6 7 7 5 4 4 3 2 1 1 0 0 0 1 1 2 2
8 6 6 6 4 10 5 5 7 8 3 5 9 11 12 8 6 10 13 12 12 10 9 9 8 6 5 6 7 6 5 4 3 3 2 1 0 1 1 1 1 1 1 2
7 9 8 9 9 7 4 6 4 5 5 5 8 8 10 9 8 10 11 12 11 11 9 8 8 7 5 5 7 7 5 4 4 3 2 1 0 1 0 0 0 1 1 1
3 3 4 2 4 3 2 3 3 4 5 5 7 9 10 9 10 10 11 10 9 9 9 7 8 7 5 5 5 6 5 5 5 4 2 2 1 1 1 1 1 1 1 2
4 3 3 2 2 1 1 3 5 6 7 7 7 7 10 11 10 10 11 10 9 8 7 7 8 8 7 6 5 5 5 5 5 4 3 2 2 2 2 2 3 3 4 4
3 6 7 7 8 6 5 4 5 7 7 8 8 7 6 9 11 10 9 9 9 8 7 7 7 6 6 5 5 5 5 5 5 3 3 3 3 2 2 3 3 6 6 9
Wind_Direction
119 89 185 203 185 172 165 175 180 202 191 125 140 149 171 163 140 156 156 164 160 171 186 158 150 147 141 135 134 134 132 133 120 103 97 89 78 54 34 331 36 47 43 49
64 237 227 204 194 179 186 179 180 155 144 124 120 97 332 172 169 173 167 165 159 159 143 140 138 136 140 147 148 142 143 141 135 131 137 142 139 148 216 327 359 6 34 37
174 228 217 202 209 203 212 185 184 159 104 86 95 28 5 360 82 103 139 154 152 157 157 155 145 142 141 149 157 156 156 145 138 125 103 75 54 37 21 5 342 323 341 14
225 243 207 196 215 199 207 196 176 155 125 158 130 131 288 140 87 101 137 143 151 151 145 150 143 140 153 162 154 148 150 143 138 128 120 119 116 131 246 246 273 307 317 338
234 212 191 199 211 185 183 141 136 130 115 84 82 120 264 186 136 177 166 151 151 151 148 149 146 147 147 145 142 141 140 140 143 135 132 125 126 182 253 317 332 329 324 320
235 243 191 189 173 160 126 92 68 52 69 109 201 139 225 215 187 173 163 150 148 147 139 134 126 117 109 111 117 126 133 139 142 136 135 142 152 161 121 341 312 313 314 309
333 309 290 139 115 107 102 104 84 51 42 239 207 152 227 219 186 164 159 151 141 140 135 130 124 121 118 115 117 124 128 132 142 139 149 166 176 178 191 217 233 252 290 281
155 255 241 177 152 148 150 138 149 161 183 250 13 209 253 194 157 141 141 137 131 134 139 142 143 139 134 130 124 125 125 125 133 146 170 172 172 173 202 212 208 218 234 247
167 220 243 190 155 138 140 163 158 128 133 123 249 316 358 94 129 134 134 131 140 145 142 139 134 131 133 130 131 136 132 120 128 145 147 132 169 175 204 217 200 215 245 255
150 173 235 194 110 101 149 152 121 124 144 159 209 206 199 184 174 163 155 156 155 145 134 128 126 128 127 125 117 112 120 125 118 113 107 92 71 140 204 183 270 271 274 275
141 154 219 149 173 168 150 137 129 128 149 146 185 248 213 187 176 168 171 168 158 150 145 138 133 128 121 108 106 106 106 98 93 97 82 66 47 33 40 26 324 299 302 296
165 136 174 230 232 180 166 164 148 148 186 167 168 255 231 175 170 162 161 161 155 148 147 142 133 120 112 110 108 108 103 100 104 100 86 73 54 40 36 11 341 342 338 320
154 131 111 341 328 219 185 179 164 138 127 157 164 251 0 144 150 158 155 156 152 146 140 132 127 128 131 129 120 114 108 111 105 96 87 66 47 39 23 1 354 358 356 348
135 136 164 187 206 193 196 198 171 140 158 184 200 192 170 163 161 163 161 158 154 152 148 143 142 144 145 140 133 127 117 110 103 93 84 68 43 30 13 5 5 4 5 5
132 163 208 223 226 194 193 195 186 177 181 180 205 186 190 183 175 170 164 158 155 157 157 157 156 155 146 134 127 122 114 103 103 96 82 60 39 35 29 22 11 7 10 10
147 167 196 265 237 199 203 207 201 200 192 186 165 205 195 164 148 157 165 165 165 168 168 164 160 156 153 146 138 121 110 106 99 95 84 63 52 41 30 21 18 16 8 1
157 151 145 251 280 114 237 216 201 197 187 164 181 204 153 155 174 179 177 175 174 173 169 168 167 165 161 158 148 137 131 113 100 97 84 65 57 44 24 20 24 14 1 2
143 133 140 179 97 213 242 239 192 186 199 188 182 174 172 181 186 183 174 172 173 172 168 167 164 159 157 151 141 128 119 111 107 99 83 66 61 45 22 23 14 357 352 356
146 136 127 132 183 269 288 262 180 173 223 197 175 174 174 139 108 172 190 175 173 170 164 162 160 153 147 143 137 123 116 114 111 109 101 85 80 63 36 18 354 344 358 2
89 109 122 131 166 231 247 257 182 121 233 233 168 158 149 132 159 213 190 167 158 153 151 148 144 135 139 147 136 126 131 130 140 157 161 136 104 91 50 352 339 345 4 1
118 97 134 156 202 257 252 250 113 144 227 210 167 159 160 172 189 176 154 156 154 149 149 145 140 141 151 150 137 135 146 166 181 170 148 115 109 156 194 345 346 357 10 12
172 164 174 151 191 251 246 146 174 206 204 159 164 166 168 159 129 136 148 151 150 146 145 144 141 144 150 147 140 145 172 190 173 153 138 132 262 278 58 59 354 357 18 11
190 187 179 181 208 235 213 189 198 163 147 158 163 167 153 138 143 147 152 153 154 152 151 148 145 144 152 157 150 159 190 181 162 153 164 198 256 288 278 171 291 335 344 332
260 151 131 194 258 244 183 152 132 137 139 146 149 149 146 145 148 149 152 155 155 154 155 150 147 152 167 174 170 175 180 169 159 169 192 203 204 248 264 244 220 230 259 271
229 148 134 190 242 90 34 166 145 117 109 112 118 137 149 142 146 153 157 161 161 157 155 154 160 169 180 179 184 187 177 164 168 184 202 212 214 222 240 247 236 231 235 227
216 165 161 204 210 174 202 201 148 127 127 129 126 125 138 146 152 153 159 162 159 156 153 156 163 172 182 181 190 196 186 172 173 192 213 218 221 228 234 252 281 269 262 272